Location: Azul
(36.7830°S, 59.8500°W)
Time: 10:50:12
(UTC-03:00)

ISS - Pass Details

Date: 31 March 2020
Orbit: 416 x 423 km, 51.6° (Epoch: 02 April)

Event Time Altitude Azimuth Distance (km) Brightness Sun altitude
Exits shadow 05:02:30 12° 165° (SSE) 1,401 -0.8 -26.6°
Drops below altitude 10° 05:02:59 10° 159° (SSE) 1,540 -0.5 -26.5°
Sets 05:05:32 0° 141° (SE) 2,411 0.9 -26.0°
